• MPC Preparation (Info)

  • MPEC 2014-K94 : 2014 KR84

    The following Minor Planet Electronic Circular may be linked-to from your own Web pages, but must not otherwise be redistributed electronically.

    A form allowing access to any MPEC is at the bottom of this page.


    Read MPEC 2014-K93 Read MPEC 2014-K95


    M.P.E.C. 2014-K94                                Issued 2014 May 31, 15:19 UT
    
         The Minor Planet Electronic Circulars contain information on unusual
             minor planets and routine data on comets.  They are published
       on behalf of Commission 20 of the International Astronomical Union by the
              Minor Planet Center, Smithsonian Astrophysical Observatory,
                              Cambridge, MA 02138, U.S.A.
    
                 Prepared using the Tamkin Foundation Computer Network
    
                                  MPC@CFA.HARVARD.EDU
                URL https://www.minorplanetcenter.net/    ISSN 1523-6714
    
                                       2014 KR84
    
    Observations:
         K14K84R* C2014 05 27.57413 20 32 43.607-34 16 48.65         20.6 wLEK094F51
         K14K84R  C2014 05 27.58228 20 32 42.514-34 16 37.40         20.5 wLEK094F51
         K14K84R  C2014 05 27.59039 20 32 41.407-34 16 26.24         20.6 wLEK094F51
         K14K84R  C2014 05 27.59861 20 32 40.310-34 16 14.85         20.8 wLEK094F51
         K14K84R |C2014 05 28.38941 20 30 57.54 -33 57 30.0          21.2 VuEK094807
         K14K84R |C2014 05 28.39513 20 30 56.78 -33 57 22.6          21.0 VuEK094807
         K14K84R _C2014 05 28.58137820 30 32.374-33 53 09.57         20.4 RtEK094568
         K14K84R _C2014 05 28.58263320 30 32.199-33 53 07.81         20.4 RtEK094568
         K14K84R _C2014 05 28.58388620 30 32.018-33 53 06.04         20.3 RtEK094568
         K14K84R |C2014 05 31.30331 20 24 05.55 -32 45 47.7          20.9 VuEK094807
         K14K84R |C2014 05 31.30948 20 24 04.57 -32 45 38.5          21.0 VuEK094807
         K14K84R |C2014 05 31.31693 20 24 03.39 -32 45 27.1          21.1 VuEK094807
         K14K84R KC2014 05 31.61679 20 23 17.92 -32 37 39.6          19.7 RoEK094474
         K14K84R KC2014 05 31.62312 20 23 16.94 -32 37 29.7          20.5 RoEK094474
         K14K84R KC2014 05 31.62523 20 23 16.59 -32 37 26.6          20.5 RoEK094474
    
    Observer details:
    474 Mount John Observatory, Lake Tekapo.  Observers A. C. Gilmore,
        P. M. Kilmartin.  Measurer P. M. Kilmartin.  1.0-m f/7.7 reflector + CCD.
    568 Mauna Kea.  Observers R. J. Wainscoat, A. Draginda.  Measurers M. Micheli,
        R. J. Wainscoat.  3.6-m Canada-France-Hawaii Telescope + CCD.
    807 Cerro Tololo.  Observers T. Linder, R. Holmes.  0.41-m f/11
        Ritchey-Chretien + CCD.
    F51 Pan-STARRS 1, Haleakala.  Observers N. Primak, A. Schultz, T. Goggia,
        M. Willman.  Measurer PS1 Science Consortium.  1.8-m Ritchey-Chretien
        + CCD.
    
    Orbital elements:
    2014 KR84                                                Earth MOID = 0.2217 AU
    Epoch 2014 May 23.0 TT = JDT 2456800.5                  MPC
    M 119.78569              (2000.0)            P               Q
    n   0.85017112     Peri.  200.41468     -0.36477966     -0.79343016
    a   1.1035664      Node   273.73321     +0.90759669     -0.18618119
    e   0.3227806      Incl.   29.22744     +0.20785585     -0.57948697
    P   1.16           H   19.9           G   0.15           U   7
    Residuals in seconds of arc
    140527 F51  0.0   0.0     140528 807  0.5+  0.5-    140531 807  0.1-  0.3-
    140527 F51  0.0   0.0     140528 568  0.1-  0.2+    140531 807  0.1-  0.2-
    140527 F51  0.1-  0.0     140528 568  0.0   0.2+    140531 474  0.1-  0.1+
    140527 F51  0.1+  0.0     140528 568  0.1-  0.2+    140531 474  0.2+  0.3+
    140528 807  0.0   0.3+    140531 807  0.0   0.1-    140531 474  0.0   0.1+
    
    Ephemeris:
    2014 KR84                a,e,i = 1.10, 0.32, 29                  q = 0.7474
    Date    TT    R. A. (2000) Decl.     Delta      r     Elong.  Phase     V
    2014 05 01    20 56 21.5 -42 25 16   0.6780  1.2680    95.6    52.3    21.5
    ...
    2014 05 16    20 50 25.5 -38 13 16   0.5855  1.3245   109.2    46.1    21.1
    ...
    2014 05 24    20 39 36.7 -35 35 56   0.5352  1.3508   118.2    41.3    20.8
    ...
    2014 05 30    20 27 16.6 -33 18 34   0.4996  1.3686   126.1    36.8    20.6
    2014 05 31    20 24 50.8 -32 53 32   0.4940  1.3715   127.4    35.9    20.5
    2014 06 01    20 22 18.5 -32 27 48   0.4885  1.3743   128.9    35.1    20.5
    ...
    2014 06 07    20 04 52.3 -29 37 11   0.4586  1.3900   138.0    29.2    20.2
    ...
    2014 06 15    19 36 25.6 -25 01 27   0.4294  1.4086   151.7    20.0    19.8
    ...
    2014 06 30    18 36 21.4 -14 35 54   0.4224  1.4356   171.4     6.1    19.3
    
    A. U. Tomatic                (C) Copyright 2014 MPC           M.P.E.C. 2014-K94
    

    Read MPEC 2014-K93 Read MPEC 2014-K95


    MPEC number:

    Enter an MPEC number in one of the following forms:

    • 1997-B01 (the full form)
    • J97B01 (the packed version of the full form)
    • B01 (the abbreviated form)